[[{"header":{"parameterUnit":"m.s-1","parameterCategory":1,"la1":30.2991,"la2":30.254,"lo1":-89.0895,"lo2":-89.0444,"dy":0.0017,"dx":0.0017,"nx":28,"ny":28,"refTime":"2024-05-18T03:00:00:Z","depth":0,"parameterNumber":2,"parameterNumberName":"U-component_of_WINDS"},"data":[0,0,0,0,0,0,0,0,0,0,0,0,0,0,0,0,0,0,0,0,0,0,0,0,0,0,0,0,0,0,0,0,0,0,0,0,0,0,0,0,0,0,0,0,0,0,0,0,0,0,0,0,0,0,0,0,0,0,1.1382,1.1381,0,1.1275,1.1273,1.1272,1.1183,1.1182,1.1181,1.118,1.107,1.1068,1.1066,0,0,0,0,0,0,0,0,0,0,0,0,0,1.1511,1.151,1.1382,1.1381,1.1379,1.1275,1.1273,1.1272,1.1183,1.1182,1.1181,1.1179,1.1071,1.1069,1.1066,0,0,0,0,0,0,0,0,0,0,0,0,0,1.1435,1.1509,1.1382,1.1322,1.1316,1.1275,1.1273,1.1272,1.1183,1.1182,1.118,1.1179,1.1072,1.1069,1.1066,1.1076,0,0,1.1057,1.1055,0,0,0,0,0,0,0,0,1.1439,1.143,1.1332,1.1326,1.1319,1.1241,1.1279,1.1206,1.1183,1.1234,1.118,1.1178,1.1128,1.112,1.1103,1.1071,1.1066,1.1056,1.1055,1.1053,1.1052,0,0,0,0,0,0,0,1.1445,1.1434,1.1339,1.1331,1.1323,1.1301,1.1289,1.1265,1.119,1.1229,1.1222,1.1211,1.1124,1.1107,1.11,1.1065,1.1056,1.1054,1.1052,1.1051,1.1036,1.1037,0,0,0,0,0,0,1.1459,1.1439,1.1343,1.1336,1.1377,1.13,1.1286,1.1267,1.119,1.1177,1.1212,1.1207,1.1112,1.1104,1.1096,1.1102,1.1053,1.105,1.1049,1.1034,1.1036,1.1037,0,0,0,0,0,0,1.1462,1.1451,1.1347,1.1386,1.1371,1.1299,1.1279,1.1266,1.1248,1.1177,1.1164,1.1208,1.1111,1.11,1.1082,1.1097,1.1049,1.1046,1.1033,1.1035,1.1037,1.1116,0,0,0,0,0,0,1.1466,1.1453,1.1456,1.1387,1.1369,1.1334,1.128,1.1265,1.1243,1.1235,1.117,1.1157,1.1109,1.1087,1.1079,1.1092,1.1044,1.1031,1.1034,1.1036,1.1111,1.112,1.1128,0,0,0,0,0,1.1471,1.1482,1.1456,1.1445,1.1371,1.1335,1.1325,1.1269,1.1245,1.1247,1.1202,1.1159,1.1098,1.1086,1.1076,1.1089,1.1029,1.1033,1.1036,1.1107,1.1118,1.1128,0,0,0,0,0,0,1.1554,1.1472,1.1442,1.1431,1.1391,1.132,1.1321,1.1283,1.1249,1.1243,1.1176,1.1162,1.115,1.1118,1.1106,1.1095,1.1058,1.1059,1.1116,1.1126,1.1134,1.1141,1.1041,0,0,0,0,0,1.1571,1.1549,1.1478,1.1475,1.1457,1.1393,1.1375,1.1336,1.1292,1.1274,1.1228,1.1187,1.1158,1.114,1.111,1.1107,1.1091,1.1111,1.112,1.1127,1.1128,1.1124,1.1132,1.1048,1.1048,1.1048,0,0,1.1605,1.1558,1.1548,1.1491,1.1455,1.1434,1.1379,1.1359,1.1342,1.1271,1.125,1.1216,1.1165,1.1155,1.1148,1.1127,1.1148,1.1131,1.1137,1.1134,1.1128,1.1136,1.1143,1.105,1.105,1.1049,0,0,1.1657,1.1619,1.1612,1.1578,1.1525,1.1483,1.1482,1.1418,1.1392,1.137,1.1317,1.1297,1.1249,1.1215,1.1192,1.1235,1.1194,1.1227,1.1269,1.1266,1.1272,1.1278,1.1292,1.1298,1.1229,1.1229,1.1229,0,1.1706,1.1671,1.1614,1.1596,1.1573,1.1509,1.1502,1.1472,1.1412,1.1398,1.1376,1.1315,1.1277,1.1257,1.1268,1.1252,1.1248,1.1232,1.1276,1.1281,1.1285,1.1298,1.1304,1.1233,1.1233,1.1232,1.1232,0,1.1734,1.1712,1.1713,1.1657,1.1634,1.1622,1.1563,1.1547,1.1511,1.1472,1.1451,1.1403,1.1362,1.1356,1.132,1.1331,1.132,1.1289,1.125,1.1299,1.1309,1.1314,1.1239,1.1238,1.1236,1.1235,0,0,1.1831,1.1746,1.1747,1.1721,1.1659,1.1641,1.1627,1.1587,1.1575,1.1537,1.1523,1.1485,1.1456,1.143,1.139,1.1388,1.1424,1.1356,1.1354,1.1369,1.1433,1.1456,1.1462,1.1398,1.1399,1.1399,1.1437,0,1.1871,1.1842,1.179,1.1778,1.1756,1.1697,1.1685,1.1646,1.161,1.1587,1.1547,1.1521,1.1485,1.1468,1.1464,1.1421,1.1435,1.1417,1.1384,1.1383,1.1396,1.1468,1.1491,1.1529,1.1441,1.1441,1.1442,0,1.1912,1.1879,1.1864,1.1805,1.1794,1.1784,1.1744,1.1723,1.1679,1.1653,1.1625,1.1583,1.1565,1.1532,1.1507,1.1496,1.148,1.1458,1.1458,1.145,1.1414,1.1461,1.1539,1.1544,1.1448,1.1448,1.1447,0,1.1983,1.1934,1.1919,1.1899,1.183,1.1825,1.1796,1.175,1.1731,1.1696,1.1683,1.1647,1.1627,1.1601,1.155,1.1531,1.1531,1.1494,1.1508,1.151,1.1508,1.1509,1.1584,1.1502,1.1502,1.1502,1.1502,0,1.2031,1.2024,1.1949,1.194,1.1931,1.1873,1.1866,1.1832,1.1792,1.1775,1.1723,1.1709,1.1643,1.1621,1.1582,1.1567,1.1559,1.1537,1.1526,1.154,1.1543,1.1527,1.1522,1.1503,1.1503,1.1503,1.1503,0,1.2106,1.2056,1.2036,1.1974,1.1958,1.1954,1.1901,1.189,1.1852,1.1831,1.1823,1.1763,1.1735,1.1683,1.1639,1.1613,1.1606,1.1588,1.1621,1.1613,1.163,1.1629,1.1696,1.1701,1.1619,1.162,1.162,0,1.2139,1.2132,1.2071,1.2056,1.2029,1.2006,1.1986,1.193,1.1911,1.1862,1.1857,1.1825,1.1795,1.1753,1.1706,1.1673,1.1653,1.1679,1.1647,1.1662,1.1651,1.1651,1.165,1.1685,1.1686,1.1687,1.1688,0,1.2202,1.2179,1.2151,1.2116,1.2094,1.2063,1.203,1.2021,1.1958,1.194,1.191,1.1888,1.1845,1.1813,1.1774,1.1744,1.1706,1.1699,1.17,1.1713,1.1731,1.172,1.1638,1.1697,1.1696,1.1695,1.1695,1.1694,1.2256,1.2247,1.2203,1.2175,1.2145,1.2116,1.2102,1.2064,1.2038,1.1999,1.1968,1.1941,1.1899,1.1842,1.1815,1.1793,1.1775,1.1777,1.1777,1.1778,1.1784,1.1737,1.1786,1.1786,1.1786,1.1785,1.1785,0,1.2315,1.2284,1.2259,1.2215,1.2194,1.2161,1.2123,1.2107,1.2084,1.2048,1.2022,1.1989,1.1958,1.191,1.1876,1.1868,1.1849,1.1861,1.186,1.1853,1.1803,1.1804,1.1876,1.1876,1.1876,1.1876,1.1876,1.1876,1.2343,1.2327,1.2298,1.2268,1.2237,1.221,1.2192,1.2165,1.2136,1.2102,1.2077,1.2046,1.2005,1.1968,1.1939,1.1926,1.1915,1.1932,1.1913,1.1866,1.1857,1.1849,1.185,1.193,1.1931,1.1965,1.1965,1.1965]},{"header":{"parameterUnit":"m.s-1","parameterCategory":1,"la1":30.2991,"la2":30.254,"lo1":-89.0895,"lo2":-89.0444,"dy":0.0017,"dx":0.0017,"nx":28,"ny":28,"refTime":"2024-05-18T03:00:00:Z","depth":0,"parameterNumber":3,"parameterNumberName":"V-component_of_WINDS"},"data":[0,0,0,0,0,0,0,0,0,0,0,0,0,0,0,0,0,0,0,0,0,0,0,0,0,0,0,0,0,0,0,0,0,0,0,0,0,0,0,0,0,0,0,0,0,0,0,0,0,0,0,0,0,0,0,0,0,0,4.3864,4.3866,0,4.4091,4.4093,4.4096,4.4124,4.4122,4.412,4.4118,4.4343,4.4351,4.4359,0,0,0,0,0,0,0,0,0,0,0,0,0,4.3447,4.3455,4.3864,4.3866,4.3869,4.409,4.4093,4.4096,4.4125,4.4122,4.4119,4.4117,4.4341,4.435,4.436,0,0,0,0,0,0,0,0,0,0,0,0,0,4.3646,4.3457,4.3863,4.391,4.3917,4.409,4.4093,4.4097,4.4125,4.4122,4.4119,4.4116,4.4337,4.4349,4.4361,4.4501,0,0,4.4398,4.4403,0,0,0,0,0,0,0,0,4.3635,4.3661,4.39,4.3907,4.3915,4.4076,4.4029,4.4232,4.4126,4.4046,4.4118,4.4114,4.4256,4.4275,4.4324,4.4511,4.4521,4.4399,4.4406,4.4411,4.4415,0,0,0,0,0,0,0,4.3621,4.3652,4.3953,4.3904,4.3913,4.3917,4.3942,4.4068,4.4166,4.4052,4.4055,4.4082,4.426,4.4313,4.433,4.4524,4.4399,4.4409,4.4417,4.4421,4.4834,4.4838,0,0,0,0,0,0,4.36,4.364,4.3946,4.396,4.3764,4.3927,4.3955,4.4027,4.4165,4.4183,4.4084,4.4082,4.4294,4.4316,4.4338,4.451,4.4411,4.4423,4.443,4.4831,4.4835,4.4839,0,0,0,0,0,0,4.3591,4.3627,4.3937,4.3801,4.3841,4.3938,4.4019,4.4034,4.4087,4.419,4.4206,4.4121,4.4292,4.4321,4.446,4.4518,4.4428,4.4439,4.4826,4.4832,4.4837,4.4855,0,0,0,0,0,0,4.3578,4.3623,4.3679,4.3802,4.3848,4.4058,4.4023,4.404,4.4108,4.4108,4.4228,4.4245,4.4292,4.4442,4.4472,4.4533,4.4448,4.4822,4.4829,4.4836,4.485,4.4861,4.487,0,0,0,0,0,4.3564,4.3674,4.3682,4.3719,4.3921,4.4061,4.4087,4.4141,4.4113,4.4169,4.4234,4.4241,4.4507,4.4456,4.449,4.4556,4.4818,4.4827,4.4835,4.4845,4.4858,4.487,0,0,0,0,0,0,4.3554,4.3691,4.3702,4.3856,4.3947,4.4066,4.4138,4.4153,4.4252,4.4247,4.4307,4.4334,4.447,4.4526,4.4468,4.4697,4.4659,4.4675,4.4655,4.4669,4.4679,4.4663,4.4458,0,0,0,0,0,4.357,4.3675,4.3788,4.3913,4.3959,4.404,4.4103,4.4137,4.4232,4.4271,4.4346,4.4437,4.454,4.4608,4.4709,4.4857,4.4883,4.4919,4.4929,4.4937,4.495,4.5031,4.5048,4.4867,4.4867,4.4867,0,0,4.3604,4.3692,4.3754,4.3914,4.3988,4.4093,4.4073,4.4185,4.4263,4.4287,4.4424,4.4482,4.4586,4.4731,4.4798,4.4782,4.5005,4.4947,4.4953,4.4962,4.5041,4.5058,4.5073,4.4873,4.4872,4.4871,0,0,4.372,4.3798,4.391,4.3985,4.4099,4.4152,4.4178,4.4295,4.4336,4.4474,4.4494,4.4585,4.4763,4.4837,4.4897,4.5038,4.5048,4.5069,4.5122,4.5201,4.5215,4.5228,4.5278,4.5295,4.5081,4.5081,4.5082,0,4.3748,4.391,4.3965,4.4078,4.4146,4.4174,4.4286,4.4355,4.4495,4.454,4.4521,4.4744,4.4816,4.4977,4.5012,4.506,4.5091,4.5056,4.5209,4.5222,4.5235,4.5283,4.5302,4.5083,4.5083,4.5083,4.5083,0,4.3937,4.4048,4.4125,4.4261,4.4338,4.4449,4.452,4.459,4.4616,4.467,4.4809,4.4896,4.5015,4.5055,4.5081,4.522,4.5206,4.5197,4.5161,4.5253,4.5299,4.5318,4.5086,4.5085,4.5085,4.5084,0,0,4.4056,4.422,4.4248,4.4309,4.4435,4.4521,4.4632,4.475,4.4809,4.4903,4.4997,4.5145,4.5137,4.5206,4.5239,4.5308,4.5413,4.529,4.5293,4.531,4.557,4.5577,4.5598,4.5419,4.5423,4.5426,4.5561,0,4.4186,4.4389,4.4441,4.4612,4.4715,4.4741,4.4838,4.4924,4.4977,4.5069,4.5126,4.5231,4.5212,4.5254,4.5323,4.5386,4.5466,4.5376,4.5506,4.551,4.548,4.5622,4.5631,4.5754,4.558,4.5583,4.5585,0,4.4367,4.4467,4.4649,4.476,4.4805,4.4891,4.5003,4.5091,4.5188,4.5221,4.5297,4.5324,4.5438,4.5394,4.5551,4.5489,4.5544,4.5582,4.5588,4.5603,4.5554,4.5641,4.5795,4.5814,4.5614,4.5612,4.561,0,4.4435,4.4615,4.4747,4.4798,4.4932,4.4991,4.5049,4.5143,4.521,4.5306,4.535,4.5457,4.5515,4.5596,4.565,4.5613,4.5801,4.5763,4.5831,4.583,4.5871,4.5868,4.6036,4.5905,4.5904,4.5904,4.5904,0,4.4576,4.4687,4.4779,4.486,4.4983,4.5041,4.516,4.5218,4.5301,4.5392,4.5419,4.5503,4.5569,4.5661,4.5702,4.5825,4.5851,4.588,4.589,4.5878,4.5875,4.5916,4.5909,4.5909,4.5908,4.5907,4.5906,0,4.4675,4.4741,4.4887,4.5001,4.5032,4.5117,4.5214,4.5292,4.5344,4.5459,4.5489,4.5571,4.5681,4.5742,4.5879,4.5907,4.6044,4.6049,4.6012,4.6017,4.6082,4.6075,4.6284,4.6314,4.6161,4.6162,4.6163,0,4.4761,4.4847,4.497,4.5034,4.5093,4.5196,4.5264,4.5322,4.5392,4.5508,4.5571,4.5683,4.5776,4.5949,4.6019,4.6124,4.6132,4.6197,4.6148,4.6133,4.6133,4.6128,4.6137,4.6207,4.6208,4.6209,4.621,0,4.4908,4.4936,4.5036,4.5146,4.5228,4.5317,4.5405,4.5455,4.5527,4.5603,4.5717,4.5789,4.5929,4.6039,4.6149,4.6205,4.6219,4.6225,4.6246,4.6236,4.6212,4.6226,4.6037,4.622,4.6219,4.6219,4.6218,4.6218,4.5004,4.508,4.5179,4.5288,4.5361,4.5442,4.5521,4.5584,4.5681,4.5801,4.5828,4.5947,4.6039,4.6188,4.6247,4.6339,4.6327,4.6358,4.6366,4.6373,4.6375,4.6196,4.6359,4.6359,4.6358,4.6358,4.6358,0,4.5152,4.5216,4.5316,4.544,4.5524,4.5531,4.5629,4.5699,4.5804,4.589,4.598,4.6109,4.6216,4.6293,4.6401,4.646,4.6469,4.6486,4.6483,4.6495,4.638,4.6351,4.6477,4.6477,4.6477,4.6477,4.6477,4.6477,4.5239,4.537,4.5409,4.5575,4.5638,4.5757,4.5812,4.5886,4.5954,4.6098,4.6187,4.6238,4.6319,4.6433,4.6529,4.6549,4.6588,4.6604,4.6625,4.6516,4.6504,4.6492,4.6465,4.6612,4.6612,4.6733,4.6734,4.6735]}]]